Wind_Speed
15 14 14 13 12 11 9 7 6 4 4 4 5 6 8 9 11 12 14 16 17 17 17 17 17 16 14 12 11 9 8 6 5 5 5 4 4 2 1 1 2 2 3 3
17 17 16 15 14 13 11 9 7 6 6 5 5 6 7 8 10 11 13 15 16 17 17 16 15 15 13 12 11 10 9 7 5 5 4 4 4 3 2 2 3 3 3 4
20 18 17 16 15 14 12 11 10 9 8 7 6 6 7 9 10 10 12 13 15 16 16 16 14 14 13 11 11 10 9 7 6 5 4 4 3 3 3 3 3 4 5 5
22 21 19 17 16 16 15 14 13 12 10 9 8 8 8 9 9 10 11 12 14 15 16 15 14 13 13 11 10 9 8 7 5 5 5 4 4 3 3 4 4 4 5 6
24 23 21 19 18 17 17 16 15 14 13 12 11 10 8 8 9 9 10 11 13 15 15 14 13 13 13 11 10 9 8 6 5 5 5 5 4 4 4 4 4 5 6 8
25 24 23 21 20 18 18 18 17 16 15 14 12 11 9 9 9 9 10 11 12 13 14 14 13 12 12 11 10 9 8 7 6 6 5 5 5 5 5 5 5 6 7 8
26 25 24 23 22 20 20 19 19 18 16 15 13 12 11 10 10 9 11 11 11 12 13 14 13 12 11 11 10 9 9 8 7 6 5 6 6 5 5 5 6 6 6 7
28 26 26 25 24 23 21 20 20 20 18 16 15 13 11 10 9 10 10 11 11 12 13 13 13 12 12 11 10 9 9 8 7 6 6 6 6 6 6 5 5 6 7 8
29 27 27 26 25 25 23 22 20 21 20 18 17 15 13 11 10 10 11 10 10 12 13 13 13 12 11 11 11 10 9 8 7 7 7 6 7 6 6 5 5 6 7 8
30 29 28 28 28 27 25 23 22 21 21 20 18 15 14 12 11 11 10 10 10 11 12 12 12 12 12 12 11 10 9 8 8 8 7 7 7 7 6 6 7 7 8 8
32 31 29 29 29 28 26 25 24 23 23 21 19 17 14 13 12 11 10 10 10 11 11 12 12 12 12 12 12 10 9 9 9 8 8 8 7 7 7 8 8 8 8 9
32 32 32 31 31 30 28 26 25 24 23 22 21 18 15 15 13 12 11 11 11 11 11 11 12 12 12 12 12 11 10 9 9 9 9 8 8 8 8 9 9 9 10 10
33 34 33 33 33 32 30 28 26 25 24 23 22 19 17 16 15 13 13 12 12 12 11 11 11 12 13 12 12 11 10 10 10 9 9 9 9 9 9 10 10 10 11 11
35 35 34 33 32 32 31 29 27 27 26 24 22 20 18 17 17 15 15 14 13 12 11 12 12 13 13 12 12 12 11 11 10 10 10 10 10 10 10 10 11 12 12 12
36 36 35 33 33 33 32 31 29 28 27 26 24 22 19 18 18 17 16 14 13 13 12 13 13 13 14 13 12 12 12 12 12 11 11 11 11 11 12 12 12 12 13 13
36 36 35 34 33 34 34 33 32 30 28 27 26 24 21 20 19 18 17 16 15 14 14 14 15 15 15 14 13 13 13 13 13 13 12 13 13 13 13 13 13 13 14 13
37 36 35 35 33 34 35 34 33 32 30 29 28 26 24 23 21 20 19 19 18 17 17 17 17 16 16 15 15 15 15 14 15 14 14 14 14 14 14 14 14 14 14 15
37 37 36 35 34 35 34 34 34 34 33 32 30 29 26 24 24 23 22 21 19 19 19 19 19 18 17 17 16 17 16 16 17 16 15 16 15 14 15 15 15 16 15 16
40 39 38 37 36 36 34 34 34 34 34 33 32 30 28 26 25 25 23 22 21 21 21 21 21 20 19 19 19 19 19 19 19 17 16 17 16 15 16 16 16 16 17 18
43 42 41 40 39 39 37 36 35 35 35 33 33 32 31 30 28 26 25 25 24 24 23 24 23 22 22 21 21 21 21 21 21 20 18 18 17 17 17 18 18 18 18 19
44 44 43 42 41 41 40 39 38 38 37 35 35 34 34 33 32 30 29 28 28 27 27 26 26 26 25 24 24 24 24 23 22 22 20 19 20 20 20 20 20 20 20 20
46 46 45 44 44 44 42 41 40 40 39 38 37 36 36 36 35 33 32 31 31 30 29 29 29 29 28 28 28 27 27 27 26 25 24 23 23 23 23 23 23 23 23 23
48 49 48 46 46 45 44 43 42 41 41 40 39 38 37 37 37 36 36 35 35 33 32 31 32 32 31 31 30 30 30 30 29 28 28 27 26 26 26 27 27 26 26 26
49 50 50 48 47 46 45 43 42 41 41 41 40 39 39 38 38 37 37 37 36 35 35 34 34 33 33 33 32 33 33 33 32 32 31 30 30 29 29 29 29 29 28 28
48 48 49 49 49 47 46 45 43 42 41 41 40 39 39 38 38 38 38 38 38 37 38 37 37 36 36 36 35 35 35 35 35 35 34 33 33 32 31 31 31 31 31 30
45 45 46 46 47 47 46 45 44 42 41 41 41 40 40 40 40 39 39 39 39 39 40 39 38 38 38 38 37 37 37 37 36 36 35 34 33 33 33 32 32 32 32 31
Wind_Direction
209 210 211 213 218 226 232 235 238 252 284 323 348 359 7 3 1 3 5 7 9 7 7 7 6 1 360 0 1 2 359 1 12 23 24 19 10 4 12 300 277 253 243 237
214 216 218 221 224 229 231 233 240 254 279 304 326 337 346 353 355 0 2 3 3 4 6 3 3 2 358 360 1 359 354 353 3 11 16 1 3 355 345 320 293 277 261 242
218 219 221 224 227 229 234 236 244 257 270 292 310 322 331 338 344 352 357 359 0 360 0 0 358 357 358 359 359 356 359 7 4 357 355 345 342 335 329 323 303 283 271 263
221 221 223 227 230 233 238 243 248 255 264 278 292 304 319 329 342 349 353 354 357 357 358 357 356 355 357 357 356 352 355 1 2 1 356 349 343 338 330 318 312 297 278 272
223 225 226 229 234 237 240 246 249 255 265 273 283 295 310 315 331 340 345 350 354 356 357 357 357 357 357 355 356 355 353 352 358 360 358 354 352 345 333 317 310 299 283 275
224 227 228 230 234 239 242 245 249 253 261 267 276 287 296 302 316 326 336 345 350 354 357 359 357 356 360 358 355 356 356 351 347 344 343 337 341 344 332 318 305 297 288 280
226 229 230 231 234 239 242 245 248 251 256 264 270 278 286 294 301 310 325 338 343 349 353 355 355 355 358 358 355 353 354 349 343 337 332 329 329 332 326 311 308 308 297 286
227 228 231 232 235 238 242 246 249 251 255 259 263 268 278 290 296 302 315 328 338 345 349 349 351 352 353 353 352 351 350 347 345 341 336 328 320 320 323 313 311 313 303 292
228 228 230 232 233 236 241 244 248 251 253 256 261 267 271 277 286 295 308 321 330 338 342 345 347 348 348 349 350 349 350 347 343 339 336 330 322 318 320 318 316 319 312 300
229 228 227 230 233 236 239 242 245 250 252 256 260 265 272 276 281 291 304 313 319 327 335 342 344 346 346 350 349 348 348 347 343 338 332 326 323 323 326 325 320 317 316 312
229 229 226 228 232 236 240 241 245 250 253 256 260 262 268 272 275 286 294 303 310 319 330 340 345 348 347 346 344 346 347 345 342 339 334 328 326 323 322 322 320 317 316 311
231 230 227 227 230 234 238 240 244 249 253 257 261 261 262 266 269 275 283 292 300 311 322 333 343 348 348 346 344 345 343 341 338 336 335 330 324 321 320 320 317 316 314 312
231 231 228 228 229 233 236 239 244 248 252 255 260 263 259 262 266 270 275 283 293 304 316 325 335 342 344 342 340 338 336 334 333 333 332 329 326 322 319 317 314 314 315 309
232 234 233 233 234 235 238 239 242 246 251 255 261 266 264 263 265 267 273 278 284 296 308 319 324 329 334 333 332 332 331 330 328 327 326 326 326 326 324 318 316 314 315 314
233 235 234 232 231 232 236 238 241 245 250 255 260 264 267 265 265 266 270 274 279 289 300 310 314 320 323 325 326 328 329 328 326 322 320 320 321 321 322 322 318 318 320 317
233 235 235 233 232 232 234 237 240 243 249 253 257 261 263 262 263 265 268 271 277 283 289 298 306 310 315 318 320 320 323 324 322 318 317 318 317 318 318 319 319 320 321 318
234 235 235 235 233 233 234 237 240 243 247 251 255 260 264 262 264 266 267 271 274 277 284 291 297 303 305 310 311 315 311 312 313 313 312 314 314 314 316 314 315 316 316 317
235 235 236 237 236 235 237 238 240 242 246 249 253 258 262 263 263 265 266 268 271 276 282 287 291 295 298 301 302 303 305 305 308 309 306 308 308 308 311 312 312 313 312 313
234 235 236 238 239 240 239 240 240 242 245 248 252 256 258 260 262 264 267 268 269 273 277 281 285 289 290 293 296 297 296 297 303 304 302 302 305 306 307 309 310 311 312 312
232 235 236 239 241 242 242 243 243 245 247 249 251 253 255 257 259 261 264 267 269 271 274 277 280 284 287 288 290 293 292 293 297 297 300 301 304 306 306 306 306 307 308 309
232 234 236 238 241 243 243 243 245 247 249 251 253 253 254 255 257 259 261 264 266 267 270 274 277 281 284 284 285 287 288 289 292 296 298 297 299 301 303 303 303 303 304 306
232 234 236 238 241 243 244 246 247 250 252 253 254 254 254 255 257 258 259 262 263 265 268 270 274 277 279 281 283 283 283 285 288 290 291 292 293 295 298 300 300 299 300 302
235 235 237 239 242 244 246 248 250 251 252 253 255 256 255 256 256 257 258 260 261 263 267 269 271 272 273 277 279 281 280 280 285 287 286 287 289 290 293 295 296 296 297 298
236 237 238 240 242 244 247 248 250 251 252 253 255 256 256 257 257 257 257 258 258 259 264 268 268 268 271 272 274 277 278 279 281 286 287 286 287 288 290 291 293 294 294 295
237 238 239 240 242 244 246 247 249 251 253 253 254 256 257 256 257 256 257 258 256 259 262 265 267 268 272 273 273 275 276 277 279 284 284 285 288 289 287 289 292 292 291 292
236 238 239 241 242 244 245 247 249 251 252 254 255 256 257 257 257 257 258 258 259 260 262 264 265 267 270 271 271 273 275 276 278 280 279 281 283 285 285 286 289 290 289 290
Height
5918 5921 5923 5924 5925 5926 5927 5928 5928 5929 5928 5928 5928 5928 5928 5927 5926 5924 5922 5919 5916 5913 5911 5908 5906 5903 5901 5899 5897 5895 5893 5892 5891 5891 5890 5890 5890 5890 5890 5890 5890 5890 5891 5891
5917 5919 5921 5922 5924 5925 5926 5927 5928 5928 5928 5928 5928 5928 5927 5926 5925 5924 5922 5919 5916 5913 5911 5908 5906 5904 5901 5899 5897 5895 5893 5890 5890 5891 5891 5891 5890 5890 5890 5890 5890 5890 5890 5890
5914 5917 5919 5921 5922 5924 5925 5926 5926 5927 5927 5927 5927 5927 5927 5926 5925 5923 5921 5919 5916 5913 5911 5909 5906 5904 5902 5899 5897 5895 5893 5891 5891 5891 5891 5890 5890 5890 5890 5890 5889 5889 5889 5889
5911 5914 5916 5918 5920 5922 5923 5924 5924 5925 5926 5926 5927 5926 5926 5925 5924 5923 5921 5919 5916 5913 5911 5909 5906 5904 5902 5899 5897 5895 5893 5892 5891 5891 5891 5890 5890 5889 5889 5889 5889 5888 5888 5888
5908 5910 5913 5916 5918 5919 5921 5921 5922 5923 5924 5924 5924 5925 5926 5924 5923 5922 5920 5918 5916 5913 5911 5908 5906 5903 5901 5899 5897 5895 5894 5892 5891 5891 5890 5890 5889 5889 5889 5888 5888 5888 5887 5887
5904 5907 5910 5913 5915 5916 5918 5919 5920 5921 5922 5923 5923 5923 5924 5923 5922 5921 5920 5918 5915 5913 5911 5908 5906 5904 5901 5899 5898 5896 5894 5893 5891 5890 5890 5890 5889 5888 5888 5887 5887 5886 5886 5885
5901 5904 5906 5909 5911 5913 5915 5917 5918 5918 5919 5920 5921 5921 5922 5921 5920 5919 5918 5917 5915 5912 5910 5908 5906 5903 5901 5899 5897 5896 5894 5893 5891 5890 5889 5889 5888 5887 5887 5886 5885 5885 5884 5883
5896 5900 5903 5905 5907 5909 5911 5913 5915 5916 5917 5918 5918 5919 5920 5920 5919 5918 5917 5916 5914 5912 5910 5908 5905 5903 5901 5899 5897 5895 5894 5892 5891 5889 5888 5888 5887 5886 5885 5885 5884 5883 5882 5881
5891 5895 5898 5900 5903 5905 5907 5909 5911 5912 5913 5914 5915 5917 5918 5918 5917 5916 5916 5914 5913 5911 5909 5907 5905 5903 5900 5898 5897 5895 5893 5892 5890 5889 5888 5887 5886 5884 5884 5883 5882 5881 5880 5879
5885 5890 5893 5896 5898 5900 5903 5905 5907 5908 5909 5911 5912 5913 5915 5915 5915 5915 5914 5913 5912 5910 5908 5906 5904 5902 5900 5898 5896 5894 5893 5891 5890 5889 5887 5886 5885 5884 5882 5882 5881 5880 5879 5877
5879 5884 5888 5891 5893 5896 5899 5901 5902 5904 5906 5907 5908 5912 5912 5912 5913 5913 5912 5911 5910 5909 5907 5905 5903 5901 5900 5898 5896 5893 5892 5891 5890 5888 5887 5885 5884 5883 5882 5881 5880 5878 5877 5876
5873 5877 5881 5885 5888 5890 5893 5896 5898 5901 5902 5903 5904 5910 5909 5909 5909 5910 5910 5909 5908 5907 5906 5904 5902 5901 5899 5897 5895 5893 5892 5890 5889 5887 5886 5885 5883 5882 5881 5880 5878 5877 5876 5874
5867 5871 5875 5879 5884 5886 5888 5891 5893 5896 5897 5898 5900 5905 5905 5905 5906 5906 5907 5907 5906 5905 5904 5903 5901 5899 5898 5896 5894 5893 5891 5890 5888 5887 5885 5884 5883 5881 5880 5878 5876 5875 5873 5872
5861 5865 5870 5875 5878 5881 5883 5886 5889 5891 5892 5894 5896 5899 5900 5901 5902 5903 5903 5903 5903 5903 5902 5901 5899 5898 5896 5895 5893 5892 5890 5889 5887 5886 5884 5883 5881 5880 5878 5876 5874 5873 5871 5869
5854 5858 5863 5868 5871 5874 5877 5880 5883 5885 5887 5889 5892 5893 5896 5897 5898 5899 5899 5900 5900 5900 5899 5899 5897 5896 5894 5892 5891 5890 5888 5887 5886 5884 5883 5881 5879 5878 5876 5874 5872 5870 5868 5866
5847 5852 5856 5861 5864 5867 5870 5874 5877 5880 5882 5884 5886 5888 5890 5891 5893 5894 5895 5896 5896 5896 5896 5896 5895 5893 5892 5890 5889 5888 5887 5885 5883 5882 5880 5879 5877 5875 5873 5872 5870 5868 5866 5864
5841 5845 5850 5854 5858 5860 5864 5868 5871 5874 5876 5879 5881 5884 5885 5886 5888 5890 5891 5891 5892 5892 5892 5892 5891 5890 5889 5887 5886 5885 5883 5882 5881 5879 5877 5876 5874 5872 5871 5869 5867 5865 5863 5861
5834 5838 5842 5846 5851 5853 5860 5862 5864 5867 5870 5872 5875 5877 5879 5881 5883 5884 5886 5886 5887 5888 5888 5887 5887 5886 5885 5884 5883 5881 5880 5879 5877 5875 5874 5873 5871 5869 5868 5866 5864 5862 5860 5858
5826 5830 5834 5838 5842 5846 5851 5854 5857 5860 5863 5866 5869 5871 5873 5875 5877 5879 5880 5881 5881 5882 5883 5883 5882 5881 5880 5879 5878 5877 5876 5875 5873 5871 5870 5869 5867 5866 5864 5862 5860 5859 5857 5855
5817 5821 5826 5830 5834 5838 5844 5847 5849 5854 5856 5859 5861 5864 5866 5868 5871 5873 5874 5874 5875 5876 5876 5877 5877 5876 5875 5874 5873 5872 5871 5870 5869 5867 5866 5865 5863 5862 5860 5858 5857 5855 5853 5851
5807 5812 5816 5821 5824 5828 5834 5838 5842 5846 5849 5852 5854 5856 5859 5861 5864 5866 5866 5867 5868 5868 5869 5870 5870 5870 5869 5868 5868 5867 5866 5865 5863 5862 5861 5860 5859 5857 5856 5854 5852 5850 5849 5847
5798 5803 5807 5811 5816 5821 5825 5829 5834 5837 5840 5842 5845 5848 5850 5852 5855 5856 5858 5859 5860 5860 5861 5862 5862 5863 5862 5862 5861 5860 5860 5859 5857 5856 5855 5855 5853 5852 5850 5848 5847 5845 5843 5842
5787 5793 5797 5802 5807 5811 5816 5820 5824 5827 5830 5833 5836 5839 5841 5843 5845 5847 5849 5850 5851 5852 5853 5854 5854 5854 5854 5854 5853 5853 5852 5851 5850 5849 5848 5848 5846 5845 5843 5842 5840 5839 5837 5835
5776 5781 5787 5792 5796 5801 5806 5810 5814 5817 5821 5823 5826 5829 5831 5833 5835 5837 5839 5840 5841 5843 5844 5844 5845 5845 5845 5845 5845 5844 5843 5843 5843 5842 5841 5839 5838 5837 5836 5834 5833 5831 5830 5828
5766 5771 5776 5781 5786 5791 5795 5800 5804 5807 5811 5814 5816 5819 5821 5823 5825 5827 5829 5830 5831 5832 5834 5835 5835 5836 5836 5836 5836 5835 5834 5833 5833 5833 5832 5830 5829 5828 5827 5826 5825 5823 5822 5820
5756 5761 5767 5772 5777 5781 5786 5790 5794 5797 5801 5804 5806 5809 5811 5813 5815 5817 5819 5819 5820 5822 5824 5825 5825 5825 5826 5826 5825 5825 5825 5824 5823 5823 5822 5821 5820 5819 5818 5817 5815 5814 5812 5811